Hourly Weather Roundup
Issued by NWS Central Illinois

Home | Current Version | Previous Version | Text Only | Print | Product List | Glossary On
Versions: 1 2 3 4 5 6 7 8 9 10 11 12 13 14 15 16 17 18 19 20 21 22 23 24 25 26 27 28 29 30 31 32 33 34 35 36 37 38 39 40 41 42 43 44 45 46 47 48 49 50
033
NZUS43 KILX 240710
HWRILX

Area Weather Roundup
National Weather Service Lincoln IL
100 AM CST WED JAN 24 2018

NOTE:  "FAIR" indicates few or no clouds below 12,000 feet, with
       no sigificant weather and/or obstructions to visibility.


CITY           SKY/WX    TMP DP  RH WIND       PRES   REMARKS
Bloomington    CLOUDY    27  22  81 NW8       30.20S WCI  19
Champaign      CLOUDY    30  25  81 W13       30.20S WCI  20
Danville       CLOUDY    28  26  91 W9        30.17S WCI  20
Decatur        CLOUDY    29  22  75 W10       30.22R WCI  20
Effingham      CLOUDY    32  26  78 W7        30.25F WCI  26
Flora          CLOUDY    34  28  79 NW5       30.25F WCI  30
Galesburg      CLOUDY    26  21  81 NW8       30.22S WCI  18
Jacksonville   CLOUDY    29  23  79 W10       30.24S WCI  19
Lacon          CLOUDY    26  20  79 NW8       30.21S WCI  18
Lawrenceville  CLOUDY    33  26  75 W9        30.25S WCI  25
Litchfield     CLOUDY    31  25  80 NW13      30.24S WCI  21
$$


CITY           SKY/WX    TMP DP  RH WIND       PRES   REMARKS
Lincoln        CLOUDY    29  23  77 NW8       30.23R WCI  21
Macomb         CLOUDY    28  22  77 NW7       30.25S WCI  21
Mattoon        CLOUDY    29  24  82 W8        30.21S WCI  21
Mt Carmel AP   CLOUDY    32  28  84 W6        30.26S WCI  27
Olney-Noble AP CLOUDY    32  27  83 NW5       30.25F WCI  27
Paris AP       CLOUDY    30  27  86 W13       30.22S WCI  20
Peoria         CLOUDY    28  20  71 NW8       30.22S WCI  20
Pontiac        CLOUDY    28  26  93 W9        30.21R WCI  19
Rantoul        CLOUDY    31  26  83 W13       30.19S WCI  21
Robinson       CLOUDY    31  26  84 NW14      30.25S WCI  20
Springfield    CLOUDY    30  24  78 NW7       30.24R WCI  23
Taylorville    CLOUDY    30  24  80 W7        30.24R WCI  23
$$

...REGIONAL REPORTS...


CITY           SKY/WX    TMP DP  RH WIND       PRES   REMARKS
Chicago O`Hare CLOUDY    28  21  75 NW8       30.15S WCI  20
Kankakee       DRIZZLE  N/A N/A N/A W15       30.19R
Moline         CLOUDY    26  18  71 W8        30.21S WCI  18
Mount Sterling CLOUDY    27  22  81 NW6       30.22F WCI  21
Mount Vernon   CLOUDY    34  26  72 NW3       30.25F
Pittsfield     CLOUDY    29  24  79 W8        30.25F WCI  21
Quincy         CLOUDY    27  21  78 W7        30.24S WCI  19
Rockford       FLURRIES  27  22  81 W7        30.18R WCI  19
$$


CITY           SKY/WX    TMP DP  RH WIND       PRES   REMARKS
Burlington     CLOUDY    27  19  72 NW7       30.22S WCI  19
Cedar Rapids   FAIR      23  18  81 NW7       30.20S WCI  15
Des Moines     CLOUDY    26  21  81 W3        30.22F
Kirksville     CLOUDY    27  24  89 W5        30.24S WCI  22
Ottumwa        CLOUDY    26  19  74 NW5       30.22F WCI  20
St Louis       CLOUDY    32  24  72 W9        30.25S WCI  24
$$


CITY           SKY/WX    TMP DP  RH WIND       PRES   REMARKS
Terre Haute    CLOUDY    31  25  78 W12       30.22R WCI  22
Evansville     CLOUDY    34  27  75 W7G18     30.26F WCI  28
Indianapolis   FRZ DRZL  30  28  92 W14       30.18R WCI  19
Lafayette      CLOUDY    30  27  88 NW7       30.17F WCI  23
Madison        CLOUDY    24  19  81 N7        30.17R WCI  16
Milwaukee      CLOUDY    28  23  81 NW6       30.14S WCI  22
$$






USA.gov is the U.S. government's official web portal to all federal, state and local government web resources and services.